This demonstration page uses our WeatherBlox Daily Observations layout. Learn more.

36.17497, -115.13722

Hourly Observations for June 21, 2015

Temp ( °F °C ) Dew Point ( °F °C ) Humidity (%) Winds ( mph kmh ) Pressure ( in mb ) Visibility ( mi km ) Precip ( " mm )
12:53 am 00:53 Clear 93 33.9 13 -10.6 5 5 SSW 13 20 29.69 1006 10 16.0934 0 0
1:53 am 01:53 Clear 93 33.9 13 -10.6 5 5 SSW 12 19 29.7 1006 10 16.0934 0 0
2:53 am 02:53 Clear 91 32.8 15 -9.4 6 6 SSW 8 13 29.7 1006 10 16.0934 0 0
3:53 am 03:53 Clear 85 29.4 20 -6.7 9 9 N 5 7 29.72 1006 10 16.0934 0 0
4:53 am 04:53 Clear 87 30.6 18 -7.8 8 8 Calm 29.73 1007 10 16.0934 0 0
5:53 am 05:53 Sunny 83 28.3 22 -5.6 10 10 ENE 7 11 29.76 1008 10 16.0934 0 0
6:53 am 06:53 Sunny 86 30 22 -5.6 9 9 SSE 7 11 29.78 1008 10 16.0934 0 0
7:53 am 07:53 Sunny 91 32.8 19 -7.2 7 7 E 6 9 29.78 1009 10 16.0934 0 0
8:53 am 08:53 Sunny 96 35.6 11 -11.7 4 4 SSE 14 22 29.79 1009 10 16.0934 0 0
9:53 am 09:53 Sunny 99 37.2 2 -16.7 2 2 SSW 18 30 29.78 1009 10 16.0934 0 0
10:53 am 10:53 Sunny 102 38.9 1 -17.2 2 2 S 23 37 29.77 1008 10 16.0934 0 0
11:53 am 11:53 Sunny 104 40 3 -16.1 2 2 S 25 41 29.75 1008 10 16.0934 0 0
12:53 pm 12:53 Sunny 106 41.1 -6 -21.1 1 1 S 25 41 29.74 1007 10 16.0934 0 0
1:53 pm 13:53 Sunny 107 41.7 0 -17.8 2 2 SSW 13 20 29.74 1007 10 16.0934 0 0
2:53 pm 14:53 Sunny 109 42.8 -6 -21.1 1 1 SW 17 28 29.71 1006 10 16.0934 0 0
3:53 pm 15:53 Sunny 109 42.8 4 -15.6 2 2 SSW 20 31 29.7 1006 10 16.0934 0 0
4:53 pm 16:53 Sunny 109 42.8 15 -9.4 3 3 SW 21 33 29.68 1005 10 16.0934 0 0
5:53 pm 17:53 Sunny 108 42.2 19 -7.2 4 4 SW 21 33 29.67 1005 10 16.0934 0 0
6:53 pm 18:53 Sunny 106 41.1 22 -5.6 5 5 SSW 22 35 29.68 1005 10 16.0934 0 0
7:53 pm 19:53 Sunny 102 38.9 25 -3.9 6 6 SSW 23 37 29.68 1005 10 16.0934 0 0
8:53 pm 20:53 Clear 99 37.2 24 -4.4 7 7 SSW 18 30 29.71 1006 10 16.0934 0 0
9:53 pm 21:53 Clear 97 36.1 24 -4.4 7 7 SW 24 39 29.72 1007 10 16.0934 0 0
10:53 pm 22:53 Clear 94 34.4 24 -4.4 8 8 SW 15 24 29.75 1008 10 16.0934 0 0
11:53 pm 23:53 Clear 92 33.3 24 -4.4 8 8 S 16 26 29.75 1007 10 16.0934 0 0

Powered by AerisWeather